Date,TemperatureHighF,TemperatureAvgF,TemperatureLowF,DewpointHighF,DewpointAvgF,DewpointLowF,HumidityHigh,HumidityAvg,HumidityLow,PressureMaxIn,PressureMinIn,WindSpeedMaxMPH,WindSpeedAvgMPH,GustSpeedMaxMPH,PrecipitationSumIn
2013-1-1,59,52,42,58,48,39,96,88,73,30.22,29.93,15,5,0,0.00
2013-1-2,45,42,38,40,33,30,90,71,58,30.32,30.22,12,4,0,0.00
2013-1-3,47,42,39,34,32,31,81,67,55,30.45,30.32,11,5,0,0.00
2013-1-4,44,42,39,39,37,33,92,85,66,30.52,30.39,11,5,0,0.00
2013-1-5,55,44,34,45,39,32,94,84,68,30.40,30.23,8,2,0,0.00
2013-1-6,61,46,34,38,34,31,95,68,34,30.39,30.27,13,4,0,0.00
2013-1-7,57,48,39,46,37,30,79,66,52,30.33,30.05,9,3,0,0.00
2013-1-8,57,52,48,56,51,45,96,95,77,30.06,29.83,11,5,0,0.00
2013-1-9,65,57,48,59,55,46,96,93,79,30.01,29.83,15,5,0,0.08
2013-1-10,55,49,43,54,48,42,97,97,96,30.05,30.00,0,0,0,0.00
2013-1-16,56,48,36,23,19,15,58,33,20,30.31,30.20,20,5,0,0.00
2013-1-17,67,51,35,38,32,21,69,50,31,30.48,30.31,11,5,0,0.00
2013-1-18,65,50,39,40,35,32,79,58,33,30.52,30.32,10,3,0,0.00
2013-1-19,69,52,36,49,42,34,96,71,40,30.33,30.15,16,4,0,0.00
2013-1-20,71,56,40,56,47,37,96,75,46,30.26,30.09,11,3,0,0.00
2013-1-21,73,58,44,57,50,42,95,75,45,30.23,30.13,7,2,0,0.00
2013-1-22,73,59,46,53,48,41,85,68,46,30.30,30.18,14,4,0,0.00
2013-1-23,76,60,44,60,53,42,96,79,53,30.34,30.19,12,3,0,0.00
2013-1-24,79,66,57,64,60,55,96,83,55,30.25,30.09,13,5,0,0.00
2013-1-25,80,68,60,64,61,58,95,80,53,30.14,29.99,16,6,0,0.00
2013-1-26,72,62,54,63,56,51,95,82,67,30.14,30.01,11,5,0,0.00
2013-1-27,79,68,58,67,63,57,96,84,63,30.09,29.93,17,8,0,0.01
2013-1-28,75,72,69,68,67,66,92,84,74,30.02,29.85,19,10,0,0.01
2013-1-29,86,73,60,68,58,30,87,64,31,29.85,29.47,21,10,0,0.00
2013-1-30,61,53,39,31,22,13,50,30,16,30.24,29.78,20,4,0,0.00
2013-1-31,68,58,39,29,23,19,51,27,16,30.32,30.18,14,6,0,0.01
2013-2-1,72,58,45,46,39,30,78,51,27,30.34,30.17,17,5,0,0.00
2013-2-2,77,59,42,57,48,39,93,67,42,30.27,30.14,9,2,0,0.00
2013-2-3,71,61,50,54,44,38,82,56,35,30.32,30.01,13,5,0,0.00
2013-2-4,76,64,57,61,57,52,93,79,53,30.02,29.78,13,4,0,0.00
2013-2-5,82,67,52,59,48,36,95,59,19,29.96,29.84,8,3,0,0.02
2013-2-6,74,65,60,63,59,52,93,81,60,29.97,29.81,9,4,0,0.05
2013-2-7,78,66,60,63,58,45,93,78,50,30.03,29.85,11,4,0,0.00
2013-2-8,70,60,49,49,40,30,75,49,23,30.21,30.03,16,6,0,0.00
2013-2-9,70,60,51,67,56,38,95,87,53,30.08,29.78,16,6,0,0.01
2013-2-10,71,66,60,67,48,32,94,57,26,29.99,29.74,14,6,0,0.02
2013-2-11,61,56,52,51,46,39,94,70,48,30.04,29.93,15,8,0,0.04
2013-2-12,75,60,52,57,46,26,96,67,24,30.02,29.80,12,6,0,0.01
2013-2-13,65,52,39,40,33,29,78,50,27,30.15,30.01,13,5,0,0.00
2013-2-14,69,52,34,41,37,30,88,59,32,30.14,30.00,14,4,0,0.00
2013-2-15,67,53,38,47,39,31,92,61,33,30.37,30.06,17,7,0,0.00
2013-2-16,65,50,35,31,27,23,64,42,25,30.47,30.23,10,3,0,0.00
2013-2-17,71,56,39,53,39,29,76,56,31,30.24,29.98,21,8,0,0.00
2013-2-18,80,68,59,62,53,32,85,62,30,30.04,29.82,17,9,0,0.00
2013-2-19,68,58,45,37,33,28,66,40,23,30.23,30.03,16,7,0,0.00
2013-2-20,70,60,54,66,52,31,93,77,35,30.10,29.65,17,8,0,0.02
2013-2-21,79,70,55,67,46,23,91,52,14,29.82,29.56,19,7,0,0.01
2013-2-22,63,55,49,40,35,26,69,48,29,30.01,29.81,17,8,0,0.00
2013-2-23,74,56,43,42,36,30,60,48,27,30.05,29.85,11,5,0,0.00
2013-2-24,69,57,37,60,49,33,91,74,61,29.93,29.60,16,6,0,0.00
2013-2-25,66,59,48,61,37,19,95,51,17,29.86,29.56,36,15,0,0.02
2013-2-26,66,53,39,31,29,26,65,41,24,29.97,29.84,14,6,0,0.00
2013-2-27,65,54,42,36,30,25,71,42,25,30.22,29.87,21,6,0,0.00
2013-2-28,63,51,39,31,27,23,58,41,25,30.33,30.18,17,5,0,0.00
2013-3-1,71,52,31,30,25,15,71,39,15,30.30,30.10,12,4,0,0.00
2013-3-2,65,52,40,31,28,26,65,42,24,30.43,30.26,18,6,0,0.00
2013-3-3,76,57,36,43,32,25,66,42,22,30.28,29.96,17,6,0,0.00
2013-3-4,87,75,57,56,50,42,84,45,22,29.89,29.69,15,7,0,0.00
2013-3-5,68,58,46,57,27,-100,95,40,14,30.35,29.76,27,10,0,0.00
2013-3-6,64,51,38,25,20,15,46,31,16,30.45,30.22,15,5,0,0.00
2013-3-7,73,57,38,56,44,25,81,64,38,30.24,30.08,18,6,0,0.00
2013-3-8,70,64,61,65,52,-100,94,81,76,30.12,29.97,15,8,0,0.02
2013-3-9,76,68,63,68,64,60,95,87,71,30.01,29.61,21,10,0,0.04
2013-3-10,69,62,52,64,45,33,94,55,31,30.11,29.62,15,8,0,0.54
2013-3-11,70,55,40,35,30,24,67,42,21,30.19,29.99,13,5,0,0.00
2013-3-12,79,60,38,42,33,27,81,41,17,30.19,30.05,13,4,0,0.00
2013-3-13,77,60,44,48,32,-100,86,48,25,30.42,30.20,11,4,0,0.00
2013-3-14,78,62,45,55,24,-100,93,49,30,30.38,30.19,14,6,0,0.00
2013-3-15,81,65,51,57,20,-100,95,47,25,30.24,29.97,22,7,0,0.00
2013-3-16,85,68,54,62,37,-100,95,59,33,30.00,29.71,24,9,0,0.00
2013-3-17,87,73,66,65,57,-100,86,68,39,29.80,29.61,13,6,0,0.00
2013-3-18,94,74,63,66,36,-100,95,50,12,29.89,29.69,15,6,0,0.00
2013-3-19,79,68,53,65,55,-100,76,65,53,29.96,29.79,16,6,0,0.00
2013-3-20,71,64,57,64,52,40,84,66,41,30.20,29.91,21,10,0,0.00
2013-3-21,76,65,52,61,53,41,82,66,54,30.01,29.61,19,7,0,0.00
2013-3-22,87,73,66,68,64,54,95,77,40,29.70,29.58,15,6,0,0.00
2013-3-23,81,66,55,63,56,50,84,71,51,29.75,29.55,13,6,0,0.01
2013-3-24,66,56,46,59,23,-100,88,42,22,30.15,29.67,26,11,0,0.00
2013-3-25,60,48,38,27,21,13,61,38,16,30.37,30.15,17,6,0,0.00
2013-3-26,66,51,37,25,22,19,56,35,17,30.50,30.28,10,3,0,0.00
2013-3-27,68,56,37,51,39,26,75,56,38,30.33,30.15,18,6,0,0.00
2013-3-28,72,65,58,59,54,-100,83,72,62,30.19,30.10,15,7,0,0.00
2013-3-29,79,68,55,61,51,-100,95,68,46,30.16,30.02,16,6,0,0.00
2013-3-30,84,73,65,65,61,-100,90,72,45,30.09,29.86,14,7,0,0.00
2013-3-31,83,71,63,66,63,58,91,79,50,29.93,29.78,16,5,0,0.03
2013-4-1,86,73,63,67,63,59,94,74,42,30.01,29.85,12,5,0,0.00
2013-4-2,80,70,66,67,64,61,94,81,61,29.98,29.76,23,7,0,0.02
2013-4-3,67,55,51,62,52,47,94,89,85,30.12,29.75,27,10,0,0.78
2013-4-4,66,55,49,48,46,42,87,72,49,30.21,30.08,14,7,0,0.00
2013-4-5,73,56,41,51,45,39,93,70,43,30.28,30.05,9,3,0,0.00
2013-4-6,82,66,52,62,55,48,92,71,43,30.08,29.79,18,8,0,0.02
2013-4-7,85,70,61,65,62,58,92,76,48,29.90,29.72,19,7,0,0.00
2013-4-8,77,71,68,68,65,62,89,82,71,29.81,29.64,16,8,0,0.00
2013-4-9,88,76,71,70,68,66,86,76,50,29.68,29.53,16,9,0,0.00
2013-4-10,75,62,49,69,55,44,92,79,64,29.89,29.59,19,10,0,0.10
2013-4-11,69,56,47,44,41,38,78,60,40,29.97,29.79,14,6,0,0.00
2013-4-12,81,63,44,52,45,40,88,56,25,29.99,29.82,11,4,0,0.00
2013-4-13,78,63,50,67,53,47,92,73,42,29.94,29.64,12,5,0,0.00
2013-4-14,88,71,56,68,62,52,95,75,40,29.81,29.58,16,5,0,0.00
2013-4-15,90,78,69,69,66,60,90,70,37,29.76,29.65,16,8,0,0.00
2013-4-16,86,76,66,71,67,62,91,75,54,29.85,29.73,17,8,0,0.00
2013-4-17,82,76,73,72,71,69,94,84,67,29.84,29.62,16,8,0,0.01
2013-4-18,76,66,54,71,56,39,91,74,45,30.04,29.61,20,11,0,0.36
2013-4-19,70,58,45,39,32,26,72,42,20,30.29,30.03,19,8,0,0.00
2013-4-20,74,59,39,48,35,29,82,45,19,30.23,29.97,14,5,0,0.00
2013-4-21,81,65,51,59,53,47,87,66,41,30.11,29.96,13,5,0,0.00
2013-4-22,84,70,57,63,58,-100,95,72,43,30.09,29.83,14,6,0,0.00
2013-4-23,80,72,57,67,62,45,87,73,53,30.03,29.81,15,8,0,0.00
2013-4-24,63,55,47,46,40,37,81,58,41,30.24,30.03,20,11,0,0.03
2013-4-25,69,62,57,48,45,41,60,53,42,30.31,30.16,14,6,0,0.00
2013-4-26,80,70,60,70,63,48,95,80,56,30.18,29.99,13,6,0,0.00
2013-4-27,80,72,67,70,67,65,94,85,68,30.06,29.90,14,4,0,0.77
2013-4-28,82,71,61,66,63,59,94,78,54,29.98,29.83,14,3,0,0.00
2013-4-29,84,72,66,69,63,-100,95,81,50,29.91,29.73,18,5,0,0.34
2013-4-30,82,77,67,68,66,65,92,71,59,29.80,29.68,11,4,0,0.00
2013-5-1,87,76,67,70,67,65,94,76,54,29.87,29.75,8,3,0,0.00
2013-5-2,76,60,50,69,52,39,91,76,60,30.33,29.78,30,12,0,0.57
2013-5-3,69,57,47,40,34,31,65,45,25,30.35,30.07,21,8,0,0.00
2013-5-4,80,64,46,44,36,-100,75,43,20,30.09,29.86,14,5,0,0.00
2013-5-5,80,66,50,48,44,40,82,48,26,30.12,29.96,14,5,0,0.00
2013-5-6,75,65,49,54,49,45,86,59,42,30.14,29.97,7,3,0,0.00
2013-5-7,84,69,51,61,53,-100,92,63,30,30.08,29.90,12,4,0,0.00
2013-5-8,84,72,62,66,43,-100,91,64,50,29.98,29.85,15,6,0,0.00
2013-5-9,80,74,64,72,68,60,89,83,75,29.94,29.79,13,6,0,0.07
2013-5-10,67,64,62,65,62,59,95,93,88,29.94,29.80,26,6,0,0.29
2013-5-12,71,68,63,59,54,53,88,63,54,30.16,29.89,26,4,0,0.29
2013-5-13,83,71,54,60,52,-100,84,57,36,30.24,30.11,12,3,0,0.00
2013-5-14,85,73,58,68,58,-100,93,70,52,30.20,29.97,17,5,0,0.00
2013-5-15,86,76,70,72,69,67,93,81,60,30.07,29.80,19,9,0,0.03
2013-5-16,94,74,72,74,48,-100,87,74,47,29.84,29.66,16,8,0,0.00
2013-5-17,95,80,75,75,67,-100,89,75,47,29.87,29.74,12,6,0,0.00
2013-5-18,94,80,71,73,62,-100,93,66,43,29.88,29.77,21,7,0,0.00
2013-5-19,92,81,73,73,60,-100,88,66,51,29.83,29.67,16,8,0,0.00
2013-5-20,92,80,69,73,67,-100,94,72,50,29.80,29.65,19,7,0,0.00
2013-5-21,90,81,71,73,72,66,91,75,57,29.82,29.65,16,7,0,0.07
2013-5-22,89,77,63,73,67,60,92,73,55,29.88,29.75,13,4,0,0.00
2013-5-23,91,81,72,73,70,-100,93,74,53,29.98,29.81,14,6,0,0.00
2013-5-24,79,75,69,74,68,-100,94,87,79,30.06,29.96,13,4,0,0.90
2013-6-10,92,84,80,71,69,67,71,62,45,29.60,29.55,2,0,0,0.01
2013-6-11,92,82,75,72,70,65,90,70,47,29.67,29.59,8,1,0,0.00
2013-6-12,94,82,75,77,72,69,89,73,47,29.70,29.60,6,1,0,0.03
2013-6-13,93,81,75,74,66,-100,91,71,50,29.72,29.59,4,1,0,0.00
2013-6-14,89,80,73,75,68,-100,89,75,58,29.65,29.56,5,0,0,0.00
2013-6-15,87,81,76,75,73,71,89,77,63,29.65,29.55,5,1,0,0.00
2013-6-16,95,84,75,74,62,-100,89,62,41,29.67,29.54,6,1,0,0.00
2013-6-17,96,85,77,74,61,-100,85,60,39,29.66,29.50,5,1,0,0.00
2013-6-18,92,82,70,75,56,-100,93,63,49,29.67,29.53,4,0,0,0.51
2013-6-19,94,84,74,74,69,-100,90,65,44,29.62,29.55,6,1,0,0.00
2013-6-20,94,83,75,72,62,-100,86,63,40,29.71,29.59,7,2,0,0.00
2013-6-22,95,90,82,71,67,63,70,46,36,29.70,29.54,9,3,0,0.00
2013-6-23,92,84,76,72,61,-100,86,58,38,29.63,29.54,8,2,0,0.00
2013-6-24,97,85,75,73,70,65,87,63,37,29.68,29.54,9,3,0,0.00
2013-6-25,97,86,77,72,69,63,85,60,33,29.65,29.51,14,3,0,0.00
2013-6-26,99,88,77,73,64,-100,81,55,35,29.62,29.52,9,2,0,0.00
2013-6-27,100,87,77,72,61,-100,82,54,24,29.68,29.54,6,1,0,0.00
2013-6-28,105,89,75,72,59,-100,81,49,24,29.64,29.45,6,1,0,0.00
2013-6-29,105,91,74,71,64,57,72,44,21,29.52,29.39,6,1,0,0.00
2013-6-30,92,82,71,69,64,58,91,58,36,29.61,29.46,4,1,0,0.09
2013-7-1,89,81,72,68,56,52,64,43,30,29.67,29.56,10,1,0,0.00
2013-7-2,92,80,69,60,52,46,58,40,24,29.74,29.62,6,1,0,0.00
2013-7-3,94,82,65,59,50,45,66,35,19,29.70,29.56,5,1,0,0.00
2013-7-4,93,81,69,67,61,56,84,55,30,29.65,29.55,4,0,0,0.00
2013-7-8,85,81,77,73,72,69,82,74,59,29.76,29.69,1,0,0,0.26
2013-7-9,97,85,74,73,71,66,91,66,37,29.80,29.65,7,1,0,0.00
2013-7-10,99,86,75,73,68,-100,89,59,35,29.75,29.56,7,1,0,0.00
2013-7-11,98,87,76,74,60,-100,84,54,30,29.66,29.52,7,1,0,0.00
2013-7-12,99,88,75,71,62,-100,80,49,29,29.62,29.52,6,1,0,0.00
2013-7-13,102,89,77,69,62,-100,72,45,26,29.63,29.48,8,1,0,0.00
2013-7-14,94,82,73,69,58,-100,85,58,39,29.57,29.51,8,1,0,0.00
2013-7-15,74,71,69,72,69,67,96,93,86,29.70,29.57,6,1,0,1.73
2013-7-16,87,75,70,74,71,68,96,88,58,29.79,29.68,8,1,0,0.14
2013-7-17,86,75,71,75,71,68,96,89,63,29.84,29.75,8,1,0,1.33
2013-7-18,92,79,70,74,70,68,96,77,47,29.84,29.65,6,1,0,0.01
2013-7-19,94,81,70,73,69,63,94,70,39,29.73,29.56,7,1,0,0.00
2013-7-20,94,81,73,73,69,-100,92,70,42,29.66,29.50,6,1,0,0.00
2013-7-21,93,82,73,75,72,70,92,74,50,29.61,29.53,9,1,0,0.00
2013-7-22,95,85,77,75,64,-100,88,64,46,29.65,29.54,11,2,0,0.00
2013-7-23,96,86,78,74,59,-100,86,59,38,29.66,29.52,8,2,0,0.00
2013-7-24,94,84,76,75,66,-100,88,68,46,29.65,29.53,7,1,0,0.00
2013-7-25,96,86,75,74,68,-100,89,61,39,29.67,29.59,4,1,0,0.00
2013-7-26,97,86,76,75,65,-100,86,60,39,29.67,29.51,8,1,0,0.78
2013-7-27,87,80,76,75,71,-100,93,78,58,29.64,29.54,7,1,0,0.01
2013-7-28,94,81,72,75,71,68,90,72,47,29.61,29.49,6,1,0,0.00
2013-7-29,96,86,78,74,65,-100,85,60,36,29.66,29.59,7,2,0,0.00
2013-7-30,96,86,76,73,59,-100,86,57,38,29.75,29.61,12,2,0,0.00
2013-7-31,99,86,74,72,58,-100,89,57,30,29.74,29.58,5,1,0,0.00
2013-8-1,100,87,74,72,59,-100,81,52,34,29.68,29.54,6,1,0,0.00
2013-8-2,98,87,75,70,51,-100,71,47,32,29.63,29.52,8,1,0,0.00
2013-8-3,97,86,77,73,46,-100,83,49,33,29.67,29.57,7,1,0,0.00
2013-8-4,97,87,77,75,70,-100,87,62,39,29.72,29.57,6,1,0,0.00
2013-8-5,100,87,75,73,62,-100,86,56,31,29.69,29.52,7,1,0,0.00
2013-8-6,101,88,76,74,56,-100,85,53,29,29.60,29.45,10,2,0,0.00
2013-8-7,102,88,78,75,65,-100,82,56,29,29.57,29.42,8,2,0,0.00
2013-8-8,99,84,76,73,31,-100,84,52,27,29.54,29.42,7,1,0,0.00
2013-8-9,100,87,75,73,45,-100,90,49,23,29.62,29.51,6,1,0,0.00
2013-8-10,101,87,75,74,69,64,82,58,31,29.70,29.57,9,1,0,0.01
2013-8-11,97,85,76,75,71,67,86,66,38,29.73,29.61,5,1,0,0.09
2013-8-12,96,84,73,73,70,65,90,65,37,29.72,29.59,6,1,0,0.00
2013-8-13,100,86,77,72,65,-100,82,54,30,29.69,29.53,6,1,0,0.00
2013-8-14,99,82,76,72,65,-100,83,61,36,29.67,29.57,5,1,0,0.01
2013-8-15,92,65,73,74,44,-100,94,73,52,29.67,29.59,5,1,0,0.13
2013-8-16,93,75,71,74,61,-100,96,73,38,29.71,29.58,5,1,0,0.01
2013-8-17,93,79,70,68,61,-100,87,60,33,29.71,29.59,6,1,0,0.00
2013-8-18,94,81,66,65,59,56,77,51,28,29.72,29.63,7,1,0,0.00
2013-8-21,95,83,72,73,69,67,87,66,41,29.74,29.61,10,1,0,0.00
2013-8-22,95,86,74,73,70,67,88,61,42,29.74,29.57,7,1,0,0.00
2013-8-23,96,86,74,74,69,64,88,60,36,29.68,29.54,4,1,0,0.00
2013-8-24,99,86,76,72,66,-100,87,54,35,29.70,29.58,7,1,0,0.00
2013-8-25,93,86,74,72,69,66,85,60,45,29.73,29.66,9,1,0,0.00
2013-8-26,90,80,75,71,70,67,85,74,49,29.78,29.67,5,2,0,0.00
2013-8-27,83,75,73,75,72,70,93,88,72,29.78,29.71,4,1,0,0.14
2013-9-19,90,81,77,77,73,70,92,76,54,29.61,29.47,5,1,0,0.18
2013-9-20,77,74,71,74,72,69,95,93,90,29.54,29.45,8,1,0,2.22
2013-9-21,83,71,66,68,57,-100,93,68,33,29.61,29.51,7,1,0,0.00
2013-9-22,83,71,57,55,45,-100,81,50,27,29.58,29.45,7,1,0,0.00
2013-9-23,89,70,56,57,53,50,84,58,26,29.52,29.42,2,0,0,0.00
2013-9-24,94,77,61,63,58,54,83,56,30,29.59,29.49,3,0,0,0.00
2013-9-25,94,79,64,64,54,-100,84,53,34,29.57,29.43,6,1,0,0.00
2013-9-26,90,76,67,70,30,-100,71,44,37,29.55,29.47,4,1,0,0.00
2013-9-27,89,80,75,76,58,-100,90,74,62,29.57,29.48,5,1,0,0.07
2013-9-28,77,70,75,75,60,-100,93,84,91,29.92,29.86,6,3,0,1.16
2013-9-29,77,73,68,73,69,66,95,88,76,30.01,29.90,10,4,0,2.20
2013-9-30,85,71,63,67,63,57,95,79,38,29.93,29.84,5,1,0,0.00
2013-10-5,89,79,64,72,61,47,69,56,45,30.01,29.84,19,7,0,0.00
2013-10-6,79,67,54,54,47,40,90,54,25,30.12,29.99,17,6,0,0.37
2013-10-7,84,67,51,54,44,-100,83,50,23,30.16,30.02,7,1,0,0.00
2013-10-8,82,68,52,56,50,47,87,57,29,30.08,29.96,9,2,0,0.00
2013-10-9,83,70,54,64,58,50,93,69,46,30.04,29.92,10,3,0,0.00
2013-10-10,86,74,61,69,59,-100,93,73,53,30.01,29.84,13,4,0,0.00
2013-10-18,73,65,59,66,50,-100,95,81,76,29.99,29.86,8,3,0,0.05
2013-10-19,68,59,52,64,47,-100,95,69,36,30.18,29.96,18,7,0,0.01
2013-10-20,74,60,45,54,39,-100,92,63,41,30.10,29.91,7,2,0,0.00
2013-10-21,80,68,59,69,49,-100,94,75,66,30.02,29.87,10,2,0,0.00
2013-10-22,75,65,54,57,48,39,83,57,29,30.14,30.03,12,6,0,0.00
2013-10-23,80,66,48,50,43,-100,82,51,26,30.18,30.08,10,2,0,0.00
2013-10-24,80,67,50,56,51,45,86,58,36,30.21,30.11,9,2,0,0.00
2013-10-25,79,71,52,63,60,50,93,71,54,30.29,30.17,9,4,0,0.00
2013-10-26,82,70,63,67,61,-100,94,79,52,30.21,30.04,14,4,0,0.00
2013-10-27,76,70,65,69,66,63,95,87,76,30.08,29.96,10,3,0,0.00
2013-10-28,83,73,67,70,65,-100,94,81,59,30.06,29.94,14,5,0,0.00
2013-10-29,85,76,71,72,64,-100,91,77,59,30.05,29.92,15,6,0,0.00
2013-10-30,85,78,74,75,73,70,93,85,68,30.00,29.76,13,7,0,0.03
2013-10-31,83,75,58,74,63,44,95,71,26,29.86,29.75,16,6,0,0.72
2013-12-17,71,53,39,47,20,-100,88,52,32,30.34,30.22,10,3,0,0.00
2013-12-18,71,57,40,55,29,-100,95,61,50,30.29,30.07,12,3,0,0.00
2013-12-19,76,65,55,63,56,-100,92,78,60,30.06,29.78,16,7,0,0.00
2013-12-20,75,70,65,68,65,62,92,85,74,29.83,29.62,15,5,0,0.00
2013-12-21,73,62,51,68,42,-100,93,69,32,29.82,29.51,14,5,0,0.27
2013-12-22,58,50,40,46,30,-100,83,63,55,30.35,29.83,16,6,0,0.00
2013-12-23,58,43,32,32,30,27,83,62,33,30.52,30.35,9,4,0,0.00
2013-12-28,56,49,43,47,38,-100,92,75,54,30.32,30.03,7,2,0,0.00
2013-12-29,63,50,38,52,44,33,96,81,64,30.25,29.98,19,6,0,0.01
2013-12-30,43,39,37,33,30,27,82,70,57,30.40,30.22,15,6,0,0.00
2013-12-31,50,42,37,34,31,28,80,65,45,30.46,30.27,6,2,0,0.00
2014-1-1,60,51,40,50,42,32,86,73,64,30.26,30.04,9,4,0,0.00
2014-1-2,52,46,34,49,33,26,93,61,41,30.45,30.09,21,9,0,0.00